Regional Weather Roundup
Issued by NWS Jackson, KY

Home | Current Version | Previous Version | Text Only | Print | Product List | Glossary On
Versions: 1 2 3 4 5 6 7 8 9 10 11 12 13 14 15 16 17 18 19 20 21 22 23 24 25 26 27 28 29 30 31 32 33 34 35 36 37 38 39 40 41 42 43 44 45 46 47 48 49 50
000
ASUS43 KJKL 241119
RWRJKL

EAST KENTUCKY HOURLY WEATHER ROUNDUP
NATIONAL WEATHER SERVICE JACKSON KY
700 AM EDT THU APR 24 2014

NOTE: "FAIR" INDICATES FEW OR NO CLOUDS BELOW 12,000 FEET WITH
NO SIGNIFICANT WEATHER AND/OR OBSTRUCTIONS TO VISIBILITY.

* THESE REPORTS ARE NOT UNDER NWS QUALITY CONTROL AND MAY NOT
  REPORT WEATHER SUCH AS PRECIPITATION AND FOG.

KYZ079-080-083-085-087-088-110-112-115-119-120-241200
...EASTERN KENTUCKY...

CITY           SKY/WX    TMP DP  RH WIND       PRES   REMARKS
JACKSON        CLEAR     44  31  60 VRB3      30.05S
LONDON         CLOUDY    47  33  58 CALM      30.04R
SOMERSET*      MOCLDY    46  32  57 E3        30.04R
WILLIAMSBURG*  CLOUDY    41  37  87 SE8       30.03S
MIDDLESBORO*   CLEAR     36  34  93 CALM      30.07R
HARLAN APT*    SUNNY     36  34  93 E3        30.04S
BLACK MTN*       N/A     48  19  32 SW2         N/A
PIKEVILLE APT* CLEAR     43  32  65 NE3       30.07R
BIG SANDY*     MOSUNNY   42  34  72 NE6       30.07S
ASHLAND*       CLOUDY    46  30  53 E5        30.11R
MOREHEAD APT*  MOSUNNY  N/A N/A N/A MISG      30.10S
$$

KYZ035-036-041-042-044-050-067-078-099-241200
...CENTRAL KENTUCKY...

CITY           SKY/WX    TMP DP  RH WIND       PRES   REMARKS
MT STERLING*   PTCLDY    45  34  65 E9        30.08S
FLEMING/MASON* MOCLDY    43  32  65 E8        30.11R
DANVILLE*      MOCLDY    43  34  70 E5        30.05
RICHMOND*      MOCLDY    43  34  70 E5        30.05R
LEXINGTON      MOCLDY    48  33  56 E10       30.05R
FRANKFORT      MOCLDY    46  35  65 E9        30.04S
$$

KYZ091>093-OHZ055-061-077-WVZ005-015-034-035-042-241200
...SOUTHERN OHIO/WEST VIRGINIA...

CITY           SKY/WX    TMP DP  RH WIND       PRES   REMARKS
COVINGTON      MOCLDY    48  33  56 E10       30.08R
COLUMBUS       CLOUDY    44  23  43 E3        30.14R
DAYTON         CLOUDY    46  27  47 E13       30.11S
WILMINGTON     CLOUDY    42  32  67 E6        30.12R
HUNTINGTON     MOCLDY    43  32  65 E7        30.10R
CHARLESTON     CLOUDY    41  36  82 CALM      30.11R
PINEVILLE*     CLOUDY    37  36  93 MISG      30.14R
BECKLEY        CLOUDY    39  29  67 CALM      30.08R
BLUEFIELD      CLEAR     42  27  55 E5        30.07S
$$

VAZ002-007-008-TNZ017-027-036-066-071-241200
...SOUTHWEST VIRGINIA/EAST TENNESSEE...

CITY           SKY/WX    TMP DP  RH WIND       PRES   REMARKS
WISE*          CLEAR     43  28  56 CALM      30.06S
ABINGDON*      CLEAR     42  29  61 E7        30.06S
BRISTOL        PTCLDY    35  29  78 CALM      30.05S
KNOXVILLE      CLEAR     44  34  67 NE5       30.03R
OAK RIDGE      CLEAR     44  36  73 CALM      30.04R
CROSSVILLE     CLEAR     41  33  73 CALM      30.02R
NASHVILLE      PTCLDY    43  39  86 CALM      29.98F
$$

...KEY TO REMARKS...
VSB - VISIBILITY IN MILES
WCI - WIND CHILL INDEX
HX  - HEAT INDEX

$$



USA.gov is the U.S. government's official web portal to all federal, state and local government web resources and services.